Location: *
(13.0000°N, 151.6000°E)
Time: 04:30:05
(UTC+00:00)

H-2A R/B - Pass Details

Date: 01 April 2020
Orbit: 528 x 653 km, 98.3° (Epoch: 24 May)

Event Time Altitude Azimuth Distance (km) Brightness Sun altitude
Rises 18:04:36 0° 23° (NNE) 2,754 6.4 -26.0°
Reaches altitude 10° 18:06:52 10° 31° (NNE) 1,838 5.5 -25.5°
Maximum altitude 18:10:34 38° 101° (E) 835 3.6 -24.6°
Enters shadow 18:13:39 13° 167° (SSE) 1,593 4.7 -23.9°
